Date,TemperatureHighF,TemperatureAvgF,TemperatureLowF,DewpointHighF,DewpointAvgF,DewpointLowF,HumidityHigh,HumidityAvg,HumidityLow,PressureMaxIn,PressureMinIn,WindSpeedMaxMPH,WindSpeedAvgMPH,GustSpeedMaxMPH,PrecipitationSumIn
2014-1-1,31.0,26.0,20.8,29.0,23.6,17.0,94,90,81,30.33,30.00,10,1,14,0.03
2014-1-2,34.5,27.9,18.4,26.0,20.4,14.0,85,74,62,30.32,29.91,4,0,6,0.01
2014-1-3,42.7,34.7,21.1,33.0,26.4,17.0,96,72,62,29.90,29.42,25,6,37,0.01
2014-1-4,22.0,15.2,3.5,18.0,11.8,0.0,90,86,80,30.39,29.90,17,4,20,0.00
2014-1-5,4.4,-6.1,-17.0,1.0,-11.1,-23.0,85,79,63,30.85,30.39,21,7,29,0.00
2014-1-6,32.3,11.3,-12.5,17.0,3.0,-19.0,82,70,50,30.77,30.22,7,1,17,0.00
2014-1-7,34.1,31.2,28.9,28.0,23.3,15.0,90,74,47,30.21,30.02,7,1,12,0.01
2014-1-8,37.4,29.1,23.8,27.0,23.5,18.0,91,80,63,30.06,29.89,2,0,5,0.03
2014-1-9,39.6,30.3,23.7,29.0,23.1,18.0,82,75,62,29.88,29.66,6,0,11,0.00
2014-1-10,37.9,31.3,22.2,27.0,22.6,16.0,78,70,61,29.85,29.63,17,4,29,0.00
2014-1-11,44.2,37.4,25.6,34.0,27.7,18.0,79,68,59,29.89,29.38,13,2,23,0.00
2014-1-12,39.2,33.2,26.1,31.0,25.0,18.0,91,73,53,29.86,29.45,23,4,29,0.02
2014-1-13,47.5,35.9,26.6,32.0,24.7,17.0,93,66,44,30.09,29.72,26,6,40,0.00
2014-1-14,29.9,26.4,22.9,26.0,23.3,19.0,93,88,78,30.43,30.11,22,8,26,0.00
2014-1-15,46.1,37.3,28.7,27.0,24.8,22.0,86,62,46,30.28,29.99,22,8,33,0.00
2014-1-16,31.4,29.4,24.5,26.0,19.4,10.0,88,66,61,30.34,30.14,29,11,37,0.00
2014-1-17,46.9,36.5,24.3,26.0,22.6,17.0,78,58,42,30.26,30.03,23,7,27,0.00
2014-1-18,43.8,36.6,29.5,28.9,25.5,22.9,80,65,48,30.23,29.98,26,8,26,0.00
2014-1-19,52.7,41.7,34.7,29.6,24.3,20.7,66,51,34,30.00,29.81,10,0,15,0.00
2014-1-20,36.6,31.3,22.6,25.1,21.6,17.0,81,67,55,30.39,30.00,21,6,25,0.00
2014-1-21,44.2,36.0,25.7,27.0,21.1,13.0,80,57,36,30.27,30.18,17,4,21,0.00
2014-1-22,31.6,23.3,10.7,26.0,19.1,7.0,89,84,78,30.55,30.17,20,4,23,0.00
2014-1-23,34.2,22.4,8.3,17.0,11.3,6.0,89,66,37,30.67,30.33,5,0,14,0.00
2014-1-24,53.3,42.6,35.8,33.0,27.2,13.0,66,55,39,30.34,30.06,17,10,26,0.00
2014-1-25,55.4,43.7,34.3,33.0,29.5,27.0,79,59,40,30.09,29.78,31,7,37,0.00
2014-1-26,38.7,24.0,4.6,32.0,19.3,0.0,93,82,70,30.32,29.74,23,10,31,0.01
2014-1-27,13.3,5.1,-5.2,8.0,0.4,-9.0,87,81,69,30.57,30.32,17,4,20,0.00
2014-1-28,27.3,13.6,-1.1,10.0,3.5,-5.0,84,66,42,30.58,30.12,11,1,13,0.00
2014-1-29,42.4,34.1,22.0,30.0,21.5,6.0,84,61,51,30.11,29.43,16,2,23,0.00
2014-1-30,33.9,16.6,8.3,30.0,13.3,5.0,91,86,78,30.05,29.48,13,2,20,0.00
2014-1-31,37.1,19.2,6.6,24.0,12.6,2.0,87,76,53,30.04,29.89,13,2,22,0.00
2014-2-1,16.8,10.6,4.6,13.0,5.1,0.0,87,78,65,30.30,30.03,15,4,19,0.00
2014-2-2,29.2,16.9,7.1,10.0,5.6,0.0,75,62,42,30.31,30.11,6,1,9,0.00
2014-2-3,20.5,15.0,8.1,15.0,9.7,5.0,87,80,65,30.27,30.04,8,2,12,0.00
2014-2-4,8.0,0.6,-7.0,5.0,-3.5,-11.0,86,83,80,30.80,30.27,15,5,16,0.00
2014-2-5,-1.9,-9.6,-16.9,-8.0,-14.7,-21.0,92,78,71,30.94,30.80,11,2,15,0.00
2014-2-6,0.6,-11.1,-22.1,-7.0,-17.1,-27.0,80,75,68,30.87,30.41,7,0,10,0.00
2014-2-7,22.6,6.6,-10.5,14.0,0.0,-16.0,87,75,62,30.41,29.99,13,2,15,0.00
2014-2-8,20.1,10.6,-1.4,15.0,6.1,-5.0,86,82,69,30.42,30.05,15,3,18,0.00
2014-2-9,14.2,5.2,-1.6,8.0,-0.1,-5.0,86,79,64,30.45,30.37,6,0,9,0.00
2014-2-10,29.0,17.4,2.6,23.0,12.4,-1.0,85,81,70,30.37,30.20,4,0,9,0.07
2014-2-11,36.5,30.1,18.8,29.0,20.5,13.0,81,68,63,30.18,29.86,15,0,34,0.01
2014-2-13,49.2,35.7,25.0,33.8,25.4,17.8,84,67,51,29.84,0.00,30,3,31,0.00
2014-2-14,37.7,31.0,27.0,23.0,19.5,17.0,69,63,48,30.00,29.85,16,6,22,0.00
2014-2-15,41.5,36.2,32.3,32.0,27.4,23.0,92,71,52,30.01,29.77,15,4,15,0.01
2014-2-20,35.4,28.5,25.1,20.3,14.9,12.2,69,57,39,29.96,29.76,35,16,35,0.00
2014-2-21,35.9,29.0,23.9,23.3,20.1,17.2,82,70,49,29.94,29.79,26,11,26,0.00
2014-2-22,23.7,18.3,10.8,19.6,14.5,7.2,90,85,77,30.28,29.92,10,2,10,0.01
2014-2-23,22.6,14.5,6.4,17.5,10.3,2.9,88,83,74,30.40,30.19,14,4,14,0.00
2014-2-24,17.3,8.9,-1.2,14.9,5.5,-5.3,93,86,80,30.54,30.09,38,9,38,0.00
2014-2-25,12.0,6.5,-1.1,6.7,1.7,-7.2,87,80,69,30.67,30.42,17,5,17,0.00
2014-2-26,31.9,16.4,3.9,12.4,4.1,-3.9,75,59,41,30.45,30.07,14,2,15,0.01
2014-2-27,45.8,28.0,6.4,31.2,17.6,-2.0,82,65,49,30.08,29.59,7,1,7,0.03
2014-2-28,36.5,12.4,-1.4,29.6,8.4,-5.6,91,84,73,30.29,29.59,26,8,26,0.00
2014-3-1,-0.5,-6.8,-14.2,-4.5,-11.3,-18.7,83,80,75,30.64,30.28,18,4,18,0.00
2014-3-2,11.5,2.3,-8.8,5.7,-2.5,-12.8,85,80,74,30.64,30.27,19,3,25,0.00
2014-3-3,49.6,32.8,6.9,34.4,24.8,2.8,91,73,54,30.26,29.82,13,0,19,0.04
2014-3-4,45.3,37.2,27.4,34.1,30.3,24.6,91,77,63,30.02,29.76,17,2,17,0.00
2014-3-5,52.9,41.3,29.7,34.2,29.1,25.0,90,64,37,30.05,29.78,8,0,12,0.00
2014-3-6,55.7,43.0,36.4,38.3,32.9,29.0,89,68,51,29.80,29.57,9,1,11,0.02
2014-3-7,40.6,33.5,27.9,35.4,30.6,26.0,95,89,76,30.21,29.79,6,0,6,0.02
2014-3-8,56.4,43.0,30.8,34.3,29.8,25.8,89,63,31,30.27,29.91,11,0,11,0.00
2014-3-9,55.7,48.7,43.2,30.7,28.0,24.9,53,45,35,29.92,29.78,7,1,13,0.00
2014-3-10,58.2,44.3,34.9,40.3,33.1,26.2,90,66,44,29.82,29.51,9,1,16,0.00
2014-3-11,36.6,31.3,27.4,32.3,26.8,20.0,95,84,66,30.37,29.63,25,7,25,0.04
2014-3-12,47.3,35.6,24.9,28.5,22.8,18.0,76,61,42,30.36,30.09,18,4,18,0.00
2014-3-13,58.5,42.0,30.5,30.8,25.4,21.0,76,54,25,30.09,29.75,25,4,26,0.01
2014-3-14,58.8,42.8,29.0,29.2,24.7,17.6,80,53,20,29.94,29.74,11,0,11,0.00
2014-3-15,42.4,36.1,28.7,35.0,29.5,26.0,89,77,55,30.31,29.78,25,7,32,0.01
2014-3-16,61.8,43.2,28.0,32.0,26.5,23.0,90,58,24,30.31,29.72,7,0,13,0.01
2014-3-17,61.6,45.5,32.2,34.0,28.3,23.0,93,54,30,29.72,29.15,17,4,30,0.01
2014-3-18,35.2,30.5,24.3,31.0,27.4,21.0,96,88,75,30.12,29.48,25,8,32,0.22
2014-3-19,44.3,34.4,24.9,27.0,24.2,17.0,90,69,34,30.12,29.93,5,0,10,0.00
2014-3-26,49.1,39.5,33.0,32.3,29.7,26.9,80,69,51,29.46,29.33,18,5,18,0.00
2014-3-27,38.9,32.5,27.4,31.1,27.1,20.9,91,80,68,29.74,29.46,10,1,11,0.04
2014-3-28,43.8,34.5,26.5,35.5,29.2,25.0,95,82,57,30.09,29.73,18,4,22,0.23
2014-3-29,64.7,48.1,32.8,33.6,29.4,25.0,78,52,27,30.02,29.63,17,1,19,0.00
2014-3-30,57.9,41.5,31.4,39.2,33.2,27.8,94,74,45,29.75,29.38,25,3,25,0.08
2014-3-31,31.4,23.4,16.4,30.9,21.5,14.2,100,92,90,30.13,29.56,29,9,30,0.00
2014-4-1,36.4,28.7,20.6,34.6,26.4,18.6,94,91,87,30.09,29.89,13,1,13,0.00
2014-4-2,39.0,31.5,27.0,34.1,28.0,24.5,92,87,80,29.92,29.75,12,1,13,0.02
2014-4-3,43.2,33.1,26.0,29.3,25.6,20.2,92,75,44,30.11,29.92,19,4,19,0.00
2014-4-4,57.8,40.6,26.1,31.6,23.4,16.5,87,56,23,30.11,29.76,10,0,11,0.00
2014-4-5,36.0,33.2,29.4,22.7,20.9,19.5,69,60,56,29.78,29.76,0,0,0,0.00
2014-4-6,55.8,42.3,33.9,36.8,32.3,27.9,88,70,38,29.95,29.78,27,7,27,0.03
2014-4-7,52.9,42.3,34.1,34.9,31.4,28.3,90,68,39,30.15,29.95,25,12,25,0.00
2014-4-8,65.9,51.1,37.5,37.5,31.9,27.3,73,51,25,30.09,29.83,20,4,20,0.00
2014-4-9,75.1,54.5,42.8,39.7,33.4,28.8,79,48,20,29.83,29.55,34,5,34,0.00
2014-4-10,58.6,46.5,36.1,40.5,33.2,27.8,90,63,36,29.90,29.81,13,2,13,0.00
2014-4-11,72.5,52.6,33.9,36.6,31.0,25.4,78,48,21,29.92,29.56,16,1,16,0.00
2014-4-12,55.3,43.3,28.5,36.9,33.2,26.6,93,69,45,29.95,29.60,18,4,19,0.04
2014-4-13,28.6,24.3,16.5,26.6,20.4,12.9,100,86,64,30.42,29.95,23,9,23,0.01
2014-4-14,45.2,31.4,15.3,27.4,19.0,10.4,87,62,37,30.42,30.03,20,3,20,0.01
2014-4-15,66.3,46.6,33.9,37.1,26.6,18.5,92,49,21,30.03,29.51,21,3,21,0.07
2014-4-16,49.2,38.3,32.6,35.0,32.3,26.8,94,81,43,30.08,29.61,26,6,27,0.03
2014-4-17,62.5,46.0,32.5,38.5,32.7,24.3,96,66,26,30.09,29.77,10,0,12,0.00
2014-4-18,72.5,53.4,39.5,43.4,37.2,32.5,80,58,24,29.77,29.49,28,2,29,0.00
2014-4-19,66.0,49.8,29.4,35.8,28.8,22.5,82,49,24,29.93,29.77,16,0,16,0.00
2014-4-20,66.6,52.5,39.7,42.9,33.5,23.2,83,51,31,30.08,29.80,23,3,25,0.00
2014-4-21,72.5,50.6,32.9,35.0,25.6,21.1,66,42,20,30.18,29.99,9,0,9,0.00
2014-4-22,74.5,57.1,45.9,47.1,39.1,32.2,68,52,32,29.89,29.27,14,2,16,0.00
2014-4-23,56.3,48.6,34.3,44.2,34.8,22.6,78,60,39,29.76,29.25,25,4,25,0.00
2014-4-24,63.4,48.3,33.9,31.1,26.3,20.8,69,45,23,29.84,29.67,15,1,15,0.00
2014-4-25,69.5,53.7,36.4,36.3,31.1,24.3,67,45,24,29.75,29.43,10,0,10,0.00
2014-4-26,72.0,57.1,47.0,44.1,36.5,31.0,75,48,25,29.44,29.20,17,1,17,0.01
2014-4-27,49.0,39.6,33.6,43.4,36.2,32.1,100,88,76,29.58,29.21,29,7,29,0.07
2014-4-28,49.7,41.8,36.8,33.3,30.9,24.4,85,67,41,30.00,29.57,39,13,39,0.01
2014-4-29,38.4,37.8,37.1,33.8,32.8,31.8,87,82,78,30.06,30.00,21,12,21,0.00
2014-4-30,49.0,39.9,31.4,36.0,31.9,27.6,95,75,51,30.39,30.28,34,18,34,0.00
2014-5-1,59.4,45.8,31.2,34.4,29.2,25.1,82,55,29,30.28,29.97,17,4,17,0.00
2014-5-2,68.6,55.1,39.7,46.6,39.4,28.9,85,57,40,29.97,29.74,19,3,20,0.00
2014-5-3,44.6,44.0,43.3,40.7,39.9,39.1,86,85,85,29.81,29.77,0,0,0,0.00
2014-5-9,66.5,50.2,34.9,43.4,37.7,31.7,92,67,32,29.86,29.52,29,3,29,0.00
2014-5-10,57.7,45.8,35.2,41.5,37.4,31.7,94,74,50,29.92,29.60,29,14,29,0.00
2014-5-11,39.4,35.7,33.4,34.7,32.5,28.1,94,88,69,30.24,29.92,22,13,22,0.00
2014-5-12,46.9,39.2,32.5,28.9,26.4,24.2,77,61,43,30.37,30.23,24,11,24,0.01
2014-5-13,56.8,45.0,33.5,32.5,28.0,24.0,74,53,35,30.36,30.29,30,10,30,0.00
2014-5-14,59.4,48.2,36.6,37.0,31.4,23.5,78,55,32,30.31,30.18,24,9,24,0.00
2014-5-15,66.6,49.2,30.2,46.8,32.5,22.8,92,57,28,30.23,29.94,23,2,23,0.11
2014-5-16,56.3,49.1,42.4,47.7,42.9,37.3,93,80,57,30.00,29.91,26,6,26,0.17
2014-5-17,64.0,52.0,42.3,49.9,44.1,37.6,87,75,54,29.98,29.75,8,0,8,0.02
2014-5-18,75.3,58.7,46.9,53.8,47.7,39.0,93,70,32,29.75,29.35,28,2,31,0.00
2014-5-19,64.9,54.0,45.3,46.9,44.2,41.1,89,71,45,29.81,29.50,27,4,27,0.00
2014-5-20,68.5,55.2,44.5,48.5,44.3,39.3,86,69,43,29.95,29.79,13,3,14,0.00
2014-5-21,62.0,54.0,47.9,52.8,48.8,44.5,91,83,70,29.97,29.92,9,1,10,0.08
2014-5-22,81.5,62.5,50.1,59.2,51.8,45.8,91,71,39,29.97,29.85,9,1,9,0.21
2014-5-23,79.8,66.0,51.6,60.1,52.4,45.5,88,64,40,29.91,29.73,11,4,11,0.00
2014-5-24,80.1,63.7,53.7,59.8,54.2,51.1,94,74,39,29.75,29.60,20,2,20,1.67
2014-5-25,73.1,62.1,52.2,58.6,53.2,49.6,95,74,49,29.83,29.72,15,3,15,0.00
2014-5-26,86.2,69.3,53.5,55.8,51.1,46.4,89,57,29,29.81,29.66,9,0,9,0.00
2014-5-27,80.0,66.5,54.1,60.4,54.9,48.8,91,68,46,29.85,29.66,29,2,31,0.01
2014-5-28,89.3,72.6,59.3,61.1,51.8,42.2,86,52,20,29.78,29.61,14,2,18,0.00
2014-5-29,76.0,66.5,55.3,61.4,53.3,45.8,79,63,51,29.85,29.55,17,4,17,0.00
2014-5-30,71.2,59.2,50.7,54.6,48.8,43.3,82,69,51,29.95,29.85,9,0,9,0.00
2014-5-31,79.2,62.9,53.4,57.6,52.3,38.5,91,71,29,29.91,29.54,13,2,26,0.15
2014-6-1,54.1,53.0,52.2,51.5,50.6,49.9,93,92,90,29.72,29.67,12,2,12,0.04
2014-7-3,89.0,72.8,56.2,60.0,52.5,46.5,77,51,29,29.88,29.70,23,4,23,0.00
2014-7-4,93.3,77.9,61.2,65.2,55.2,49.8,75,48,25,29.73,29.66,10,3,10,0.00
2014-7-5,95.7,79.2,63.9,61.6,54.4,50.4,72,46,22,29.73,29.66,12,2,12,0.00
2014-7-6,91.7,77.3,62.8,60.0,53.9,50.1,74,47,28,29.81,29.68,7,2,7,0.00
2014-7-7,77.5,68.3,55.0,63.1,54.7,44.0,89,63,43,29.95,29.64,23,8,23,0.12
2014-7-8,83.3,67.2,48.3,54.3,48.4,43.1,89,55,30,30.00,29.84,8,2,8,0.00
2014-7-9,88.7,73.6,60.0,60.7,54.2,49.6,70,53,29,29.86,29.59,9,2,9,3.37
2014-7-10,84.5,74.1,62.9,64.7,59.1,54.5,86,62,37,29.67,29.52,12,1,12,0.01
2014-7-11,87.5,70.9,62.0,66.2,60.3,55.3,83,70,42,29.87,29.64,12,1,12,0.01
2014-7-12,83.2,70.7,58.7,62.5,56.8,48.8,90,64,41,29.99,29.86,19,2,19,0.00
2014-7-13,86.3,71.9,55.6,60.8,49.4,38.8,80,50,20,29.99,29.88,19,3,22,0.00
2014-7-14,77.1,64.8,52.4,48.1,43.3,35.2,78,49,25,30.08,29.96,12,2,12,0.00
2014-7-15,78.7,65.6,53.6,55.5,50.1,44.6,74,59,39,30.03,29.76,13,1,13,0.01
2014-7-16,76.4,64.8,57.8,59.9,55.3,52.3,91,73,50,29.84,29.78,11,0,11,0.05
2014-7-17,87.0,70.0,55.3,58.2,52.5,45.4,89,59,27,29.81,29.59,8,0,8,0.00
2014-7-18,88.9,74.8,62.9,54.4,50.3,45.1,68,44,25,29.65,29.55,17,2,18,0.00
2014-7-19,92.8,76.0,63.0,61.7,52.6,48.1,66,46,26,29.64,29.51,12,1,14,0.00
2014-7-20,96.7,78.0,59.5,59.7,53.0,44.7,78,46,20,29.60,29.49,9,1,9,0.00
2014-7-21,94.8,77.7,63.1,59.4,52.7,46.7,78,45,21,29.80,29.47,32,2,32,0.01
2014-7-22,77.6,64.4,61.4,60.9,57.0,54.5,83,77,53,29.92,29.78,4,0,4,0.00
2014-8-18,66.8,66.8,66.8,47.6,47.6,47.0,50,50,50,29.67,29.67,0,0,0,0.00
2014-8-19,93.9,76.1,63.0,60.2,48.7,40.1,66,42,18,29.67,29.41,10,0,10,0.00
2014-8-20,82.8,73.4,63.3,51.2,49.0,46.2,63,43,30,29.61,29.40,21,4,21,0.00
2014-8-21,82.7,67.4,56.6,59.0,54.7,50.5,90,67,37,29.83,29.60,20,2,20,0.06
2014-8-22,81.8,64.6,56.7,59.3,56.4,52.0,94,78,39,29.87,29.67,21,2,22,0.51
2014-8-23,72.8,61.0,50.2,62.5,56.4,48.0,96,86,57,29.75,29.53,17,4,19,0.64
2014-8-24,61.9,51.9,44.8,48.1,45.0,42.3,93,78,55,29.99,29.68,19,8,19,0.04
2014-8-25,67.5,54.3,43.1,49.9,45.2,40.9,93,74,48,30.10,29.99,14,2,14,0.00
2014-8-26,78.0,63.8,51.8,57.8,51.2,45.6,91,66,40,30.02,29.92,10,1,10,0.00
2014-8-27,83.0,64.3,55.0,62.1,56.2,50.1,93,77,40,29.97,29.80,8,0,11,0.20
2014-8-28,82.4,67.3,56.3,58.2,53.2,46.2,90,66,30,29.85,29.74,15,4,15,0.00
2014-9-11,33.2,32.8,32.3,31.9,31.5,30.9,95,95,95,30.59,30.54,7,3,8,0.00
2014-9-12,55.1,39.5,29.8,40.6,32.6,28.5,96,79,47,30.59,30.18,10,1,12,0.11
2014-9-29,52.2,52.0,51.1,49.7,49.5,48.8,93,91,88,29.68,29.63,16,5,16,0.06
2014-9-30,52.2,52.2,52.2,49.7,49.7,49.6,91,91,91,29.63,29.63,0,0,0,0.00
2014-10-1,48.1,43.7,41.1,40.3,38.0,36.4,86,80,67,29.94,29.88,3,0,3,0.01
2014-10-2,59.5,42.1,30.1,39.4,34.9,28.1,94,78,35,30.32,29.92,24,8,24,0.04
2014-10-3,30.0,28.1,26.9,27.9,25.3,23.8,92,89,88,30.37,30.32,11,5,12,0.00